Regional Weather Roundup
Issued by NWS

Home | Current Version | Previous Version | Graphics & Text | Print | Product List | Glossary On
Versions: 1 2 3 4 5 6 7 8 9 10 11 12 13 14 15 16 17 18 19 20 21 22 23 24 25 26 27 28 29 30 31 32 33 34 35 36 37 38 39 40 41 42 43 44 45 46 47 48 49 50
000
ASUS43 KIND 041659
RWRIN

WEATHER ROUNDUP FOR INDIANA
NATIONAL WEATHER SERVICE INDIANAPOLIS IN
100 PM EDT WED MAY 04 2016

NOTE: "FAIR" INDICATES FEW OR NO CLOUDS BELOW 12,000 FEET WITH NO
SIGNIFICANT WEATHER AND/OR OBSTRUCTIONS TO VISIBILITY.

* - STATION DOES NOT REPORT WEATHER SUCH AS PRECIPITATION OR FOG.

+ - STATION NOT QUALITY CONTROLLED BY THE NATIONAL WEATHER SERVICE.
    USE DATA WITH CAUTION...ESPECIALLY DEWPOINT AND RELATIVE
    HUMIDITY OBSERVATIONS.

INZ001>003-010>013-019-020-041800-
NORTHWEST INDIANA

CITY           SKY/WX    TMP DP  RH WIND       PRES   REMARKS
GARY /AIRPORT/ CLOUDY    50  43  76 N23G43    29.79R
RENSSELAER +   PTSUNNY   50  41  71 N15G26    29.76R

$$

LMZ046-743>745-041800-
SOUTHERN LAKE MICHIGAN

STATION/POSITION TIME  TEMP    WIND        PRES    WAVE
                       AIR SEA DIR/SP/G            HT
                 (UTC) (F)     (DEG/KT/KT) (MB)    (FT)
BURNS HARBOR     1606   45     340/ 22     1007.8R
MICHIGAN CITY    1600   43     320/ 28/ 30   N/A

$$

INZ004-005-014>016-021>024-041800-
NORTH CENTRAL INDIANA

CITY           SKY/WX    TMP DP  RH WIND       PRES   REMARKS
ELKHART        CLOUDY    45  43  93 NW16G24   29.68R
GOSHEN         CLOUDY    46  41  82 NW16      29.66R
PERU/GRISSOM   CLOUDY    47  41  78 NW22G28   29.69R
SOUTH BEND     CLOUDY    43  39  86 NW23G33   29.70R

$$

INZ006>009-017-018-025>027-041800-
NORTHEAST INDIANA

CITY           SKY/WX    TMP DP  RH WIND       PRES   REMARKS
ANGOLA *+      CLOUDY    46  45  93 NW9       29.61R
FORT WAYNE     CLOUDY    51  42  71 NW15G25   29.64R

$$

INZ028-029-035-036-043>045-051>053-041800-
WEST CENTRAL INDIANA

CITY           SKY/WX    TMP DP  RH WIND       PRES   REMARKS
CRAWFORDSVL +  PTSUNNY   51  44  78 NW16G22   29.74R
GREENCASTLE +  PTSUNNY   54  45  71 N15G23    29.73R
LAFAYETTE      PTSUNNY   51  41  68 N14G24    29.75R
TERRE HAUTE    MOSUNNY   59  45  59 N14G24    29.74R

$$

INZ030>032-037>040-046>048-054>057-064-065-041800-
CENTRAL INDIANA

CITY           SKY/WX    TMP DP  RH WIND       PRES   REMARKS
COLUMBUS       LGT RAIN  54  48  82 N16G25    29.69F
INDIANAPOLIS   PTSUNNY   56  45  66 NW18      29.69R
-EAGLE CREEK   PTSUNNY   55  44  66 NW13G25   29.70R
KOKOMO *+      CLOUDY    48  39  71 NW24      29.70R
SHELBYVILLE    CLOUDY    56  47  71 N6        29.68S

$$

INZ033-034-041-042-049-050-058-059-041800-
EAST CENTRAL INDIANA

CITY           SKY/WX    TMP DP  RH WIND       PRES   REMARKS
MUNCIE         PTSUNNY   55  45  68 NW17      29.66R

$$

INZ060-061-067>069-081>083-085>088-041800-
SOUTHWEST INDIANA

CITY           SKY/WX    TMP DP  RH WIND       PRES   REMARKS
EVANSVILLE     CLOUDY    59  50  72 N8        29.74R
HUNTINGBURG *+ CLOUDY    55  50  82 NW10      29.73R

$$

INZ062-063-066-070>080-084-089>092-041800-
SOUTH CENTRAL AND SOUTHEAST INDIANA

CITY           SKY/WX    TMP DP  RH WIND       PRES   REMARKS
BLOOMINGTON    LGT RAIN  57  46  66 N17G29    29.70S
MADISON *+     CLOUDY    52  48  87 SW8       29.72S
SEYMOUR +      PTSUNNY   55  54  94 W5        29.70S

$$





USA.gov is the U.S. government's official web portal to all federal, state and local government web resources and services.